Wind_Speed
27 25 24 23 22 21 25 28 28 28 29 31 33 36 35 35 37 39 39 39 45 42 41 41 42 39 39 39 39 37 39 37 39 42 42 40 37 39 40 40 38 37 40
26 25 24 24 24 25 26 27 27 29 28 29 35 39 37 34 35 38 39 40 45 45 46 44 44 41 42 44 41 39 40 37 43 46 44 44 46 43 42 45 47 48 46
24 24 24 25 26 27 27 27 27 29 29 30 33 40 43 39 38 41 42 43 45 48 50 48 47 45 46 45 45 46 48 47 45 44 47 46 48 47 49 53 55 54 51
24 23 24 25 27 27 26 28 29 29 31 32 34 35 37 38 42 43 45 47 49 50 51 52 52 51 52 50 50 52 52 52 50 50 49 51 52 53 56 55 55 51 52
23 25 25 23 25 26 27 26 27 29 31 32 34 36 37 40 44 47 47 47 49 51 54 55 56 55 55 55 54 55 57 56 54 53 52 52 54 50 50 50 50 51 52
14 20 23 23 24 26 27 29 29 30 31 32 37 38 40 43 45 46 49 51 52 53 55 56 57 57 59 59 59 58 58 57 56 57 53 48 48 50 48 51 52 51 51
12 13 14 19 23 25 26 30 32 33 33 36 37 37 40 43 44 44 45 48 49 51 53 55 56 58 58 60 59 60 60 61 62 62 59 58 58 54 51 52 55 55 54
6 11 11 13 17 21 21 24 27 32 37 41 42 42 40 40 41 42 43 43 46 49 50 52 54 55 56 56 56 57 56 57 57 57 60 61 61 58 57 56 52 52 58
5 2 3 5 8 13 20 25 30 30 31 33 35 42 44 46 44 43 40 43 48 50 50 51 53 53 51 50 51 53 53 53 53 54 54 56 57 58 62 66 64 55 49
11 9 6 1 5 6 10 14 20 28 34 38 39 36 37 40 43 45 46 46 47 49 45 49 51 51 52 52 55 57 59 58 55 59 58 58 58 59 59 53 47 38 38
12 11 10 10 9 8 8 9 10 12 18 28 30 35 39 43 44 45 45 46 48 51 51 52 54 58 56 57 59 61 61 59 56 53 45 35 23 17 15 13 14 18 18
11 11 11 11 11 11 11 10 9 8 7 11 18 26 29 32 38 42 47 48 49 43 41 36 44 56 57 60 56 41 41 51 46 32 22 15 12 12 10 9 9 6 4
10 9 10 11 12 11 11 11 10 9 7 5 3 7 13 18 23 27 29 28 27 27 29 29 31 19 17 27 26 26 27 17 15 18 17 16 13 11 10 9 7 5 3
10 11 9 10 11 12 12 14 13 10 11 9 7 6 6 7 8 10 12 11 10 6 3 3 3 4 3 14 17 18 19 20 19 18 15 15 12 10 8 8 6 3 2
8 8 7 8 9 10 11 14 15 15 12 10 10 8 7 7 10 8 8 9 11 14 15 17 20 21 22 26 23 20 21 19 18 17 16 13 9 5 6 5 4 5 6
5 4 5 7 8 9 13 14 14 12 10 14 14 15 18 16 13 12 13 15 14 13 16 20 21 21 22 23 23 20 19 18 15 11 11 9 8 6 8 7 7 6 7
5 5 5 6 7 8 11 14 17 17 15 18 20 18 17 16 14 14 13 12 13 12 19 22 21 20 19 18 17 15 14 13 10 8 8 7 7 5 6 6 6 7 7
7 5 5 7 9 11 14 16 17 18 19 20 18 16 14 13 12 13 12 12 17 18 20 19 18 15 13 13 12 11 10 8 7 8 6 6 5 5 6 7 7 7 7
8 8 8 9 10 10 11 13 15 16 18 18 14 13 12 10 9 11 10 12 16 17 16 15 13 11 9 8 8 7 7 7 8 7 7 6 6 7 8 8 8 9 9
9 9 9 10 11 12 13 13 14 14 15 14 14 14 10 6 9 12 12 13 13 13 11 9 9 8 8 7 6 6 6 6 6 6 6 7 7 8 8 8 8 9 10
9 9 9 10 11 11 11 11 11 10 11 11 12 10 8 7 9 9 9 8 9 9 8 7 6 6 6 5 6 6 5 5 6 6 6 7 7 7 7 7 8 9 9
7 7 7 8 9 9 9 8 8 8 8 8 8 7 6 4 5 5 6 6 6 6 5 5 5 4 4 4 4 4 5 5 5 5 5 6 6 6 6 7 7 8 9
5 5 5 6 6 6 5 6 5 4 5 5 6 5 4 5 6 6 6 6 5 5 5 4 4 4 3 4 4 5 5 6 6 6 6 6 5 5 5 5 5 6 9
3 3 3 3 3 3 3 4 4 4 4 5 5 5 5 5 5 5 5 5 6 6 6 6 5 5 5 5 5 5 5 5 6 6 5 4 4 3 4 5 7 9 10
2 2 2 2 3 3 3 4 4 5 5 5 5 4 4 4 3 3 3 4 4 5 5 6 6 7 7 7 7 7 7 7 7 6 6 5 5 4 4 6 7 8 9
4 4 4 4 4 4 3 3 3 4 4 4 4 4 3 3 3 3 3 4 5 5 5 6 7 7 7 8 8 8 8 8 8 7 6 6 6 5 5 7 8 9 10
Wind_Direction
224 224 219 214 209 210 208 210 216 225 227 225 222 215 209 213 227 228 225 225 214 219 226 231 234 240 243 245 244 251 253 251 254 260 263 266 266 275 271 272 274 273 278
226 231 226 221 215 213 216 214 218 225 227 228 225 219 222 235 230 221 221 222 216 219 226 237 238 242 245 244 248 249 247 255 261 263 266 267 271 275 277 277 277 278 278
229 237 240 230 226 226 224 225 221 224 228 230 230 230 236 240 233 225 225 227 229 231 233 236 240 244 245 245 249 250 252 256 260 263 267 269 272 275 279 281 279 278 278
239 242 247 246 243 242 238 232 232 232 233 233 235 237 238 238 235 233 233 234 236 238 239 242 245 247 248 251 253 255 257 260 259 263 268 272 272 274 280 281 279 278 278
251 250 253 254 252 253 255 251 248 245 243 244 244 244 243 241 239 239 239 240 242 243 244 247 249 250 251 253 255 258 259 260 263 265 267 270 271 273 275 279 280 286 286
254 262 258 258 260 259 259 260 260 258 255 250 246 247 249 248 247 247 248 249 250 251 251 252 254 256 258 259 261 262 262 264 265 267 267 263 265 268 270 273 274 276 275
237 262 271 271 268 264 264 265 264 264 265 262 261 258 254 252 253 253 252 253 255 256 257 257 259 259 260 261 261 263 264 264 264 268 266 266 268 268 265 265 268 271 269
183 226 237 238 243 253 261 266 267 269 267 268 270 269 268 268 265 264 262 260 259 259 260 260 261 262 263 263 264 265 265 265 266 266 266 268 267 264 263 263 266 261 263
102 159 253 265 273 262 251 255 263 267 272 270 270 267 267 273 276 276 273 267 263 261 263 263 264 265 267 266 266 267 269 268 268 267 267 267 266 267 265 264 264 260 252
53 55 55 6 268 275 270 259 255 250 256 264 269 267 268 264 261 266 264 263 266 268 270 268 268 267 264 263 262 263 263 263 264 265 264 263 262 261 263 263 258 245 237
42 38 34 29 23 12 343 302 290 283 274 265 250 243 243 249 253 258 258 259 258 260 260 261 257 259 256 260 264 262 258 257 253 249 243 241 238 236 227 220 220 222 220
20 18 25 26 18 5 356 347 324 303 308 299 261 244 241 241 248 255 256 257 253 250 255 262 255 259 258 257 256 250 252 241 234 220 192 159 154 145 130 135 148 148 151
10 14 14 19 21 24 25 18 4 349 341 342 306 271 272 276 284 289 292 298 313 300 276 266 261 268 275 260 262 253 240 212 141 130 133 128 132 118 119 121 112 113 119
11 7 21 21 23 29 33 31 25 21 22 25 22 7 349 338 336 339 336 340 1 353 214 216 239 254 181 118 110 126 133 137 138 132 119 110 110 113 106 94 90 68 20
354 10 15 41 31 23 37 37 30 24 21 30 40 42 46 53 60 65 70 77 97 114 110 113 111 114 111 112 114 117 116 115 116 121 122 115 104 78 80 56 30 7 4
7 28 41 52 60 58 65 68 63 64 70 83 82 77 82 88 98 103 106 107 110 110 111 105 105 106 106 105 107 103 102 103 102 97 88 83 69 32 17 24 20 18 22
19 41 57 75 88 89 92 93 91 93 97 93 89 91 92 96 98 97 100 104 107 118 108 105 100 97 95 95 93 91 84 79 74 63 47 41 43 38 29 25 22 19 20
49 69 96 108 109 112 112 108 108 105 97 91 90 88 84 86 90 94 98 110 107 98 98 100 96 90 85 82 79 71 67 68 68 66 62 57 48 40 38 32 23 22 25
61 76 86 98 103 106 108 107 104 101 96 92 92 87 79 80 85 92 101 96 96 96 95 94 91 88 78 62 63 71 72 68 67 63 64 55 47 36 33 29 19 15 13
68 80 94 100 104 107 109 107 104 100 97 91 83 74 73 92 99 93 90 90 91 91 90 86 84 77 74 69 65 63 58 59 59 51 45 38 34 27 19 15 9 1 356
76 93 99 103 104 105 105 103 97 94 89 87 82 73 59 57 75 77 78 81 80 79 73 66 64 61 60 54 46 41 38 33 31 26 19 17 17 8 3 357 354 347 347
76 90 102 104 104 106 102 95 89 83 81 77 78 75 66 44 58 65 66 67 71 70 68 58 49 48 46 40 30 20 15 5 358 358 359 4 1 355 342 337 342 347 345
68 82 96 106 110 106 109 105 94 84 72 63 61 62 56 54 59 62 60 56 51 50 46 38 27 22 15 6 359 354 351 344 340 338 331 333 331 322 319 328 337 340 342
40 57 70 82 87 86 88 84 77 72 72 75 73 69 64 59 51 49 45 36 25 20 14 5 0 355 350 345 338 335 331 323 318 311 303 298 294 308 316 331 341 343 340
24 41 67 77 79 76 69 76 79 79 75 73 71 66 59 51 40 37 25 10 3 359 350 341 333 329 327 322 314 312 311 311 306 305 303 299 296 296 306 321 326 324 321
55 59 67 72 75 75 67 61 56 54 50 52 46 36 23 4 356 351 345 336 330 326 318 309 306 305 303 297 293 293 295 290 288 281 271 266 265 275 298 313 316 313 315
Height
1411 1414 1417 1420 1424 1429 1432 1436 1440 1444 1448 1452 1456 1460 1463 1467 1471 1474 1478 1482 1486 1492 1496 1499 1503 1506 1508 1510 1512 1513 1513 1514 1514 1514 1515 1517 1517 1518 1519 1519 1518 1518 1517
1410 1412 1415 1419 1422 1425 1429 1432 1436 1439 1444 1449 1454 1458 1461 1464 1467 1470 1473 1477 1481 1485 1490 1494 1496 1499 1500 1502 1504 1504 1506 1506 1508 1505 1506 1507 1507 1508 1509 1508 1507 1506 1505
1411 1413 1416 1418 1422 1423 1426 1429 1432 1436 1439 1443 1447 1452 1455 1459 1462 1464 1467 1471 1475 1478 1481 1484 1487 1490 1490 1493 1494 1496 1497 1497 1496 1496 1494 1497 1497 1497 1497 1496 1495 1493 1493
1408 1411 1413 1416 1418 1422 1424 1428 1430 1433 1436 1439 1441 1444 1448 1451 1454 1458 1461 1464 1467 1469 1472 1473 1476 1478 1480 1483 1484 1486 1488 1487 1487 1486 1486 1486 1486 1487 1485 1483 1479 1481 1479
1404 1407 1410 1414 1417 1420 1423 1426 1430 1432 1434 1437 1439 1440 1441 1443 1445 1448 1452 1455 1458 1460 1462 1463 1466 1468 1469 1471 1473 1474 1475 1476 1477 1476 1474 1475 1475 1475 1473 1472 1468 1468 1465
1401 1405 1408 1411 1414 1416 1419 1422 1424 1426 1428 1431 1432 1434 1436 1436 1438 1441 1445 1447 1449 1450 1450 1452 1454 1458 1458 1460 1462 1463 1464 1464 1465 1464 1462 1461 1462 1462 1462 1459 1458 1457 1452
1400 1403 1405 1407 1409 1412 1415 1416 1418 1420 1422 1423 1424 1426 1426 1428 1431 1435 1439 1440 1440 1440 1440 1441 1442 1443 1445 1446 1447 1449 1452 1453 1454 1455 1450 1448 1445 1448 1450 1446 1443 1443 1440
1398 1400 1402 1403 1405 1407 1408 1411 1413 1415 1415 1415 1415 1416 1417 1418 1422 1426 1429 1431 1431 1430 1429 1429 1429 1430 1431 1431 1434 1434 1434 1437 1439 1439 1435 1432 1432 1433 1434 1434 1432 1429 1427
1399 1400 1400 1400 1401 1401 1403 1404 1405 1406 1406 1407 1410 1411 1411 1409 1412 1414 1416 1416 1416 1416 1417 1417 1417 1417 1418 1421 1420 1419 1419 1418 1421 1421 1419 1416 1416 1417 1418 1419 1417 1419 1413
1400 1400 1399 1398 1398 1398 1397 1398 1399 1399 1400 1400 1400 1404 1407 1405 1404 1404 1405 1404 1404 1404 1406 1404 1404 1403 1405 1406 1406 1405 1403 1401 1403 1402 1403 1402 1401 1400 1400 1401 1403 1403 1403
1403 1401 1400 1398 1396 1395 1394 1393 1393 1393 1393 1393 1393 1392 1393 1393 1393 1393 1393 1394 1394 1394 1393 1393 1388 1387 1388 1391 1394 1394 1392 1388 1387 1387 1385 1386 1388 1389 1390 1393 1398 1398 1396
1403 1402 1400 1398 1397 1394 1392 1390 1390 1389 1387 1388 1387 1386 1385 1384 1383 1384 1384 1385 1385 1383 1382 1381 1378 1372 1373 1375 1378 1376 1379 1374 1373 1375 1379 1383 1385 1386 1390 1392 1393 1398 1407
1406 1402 1400 1398 1396 1394 1392 1390 1389 1388 1386 1385 1384 1383 1382 1381 1380 1378 1378 1377 1377 1377 1375 1369 1371 1373 1376 1363 1365 1370 1368 1370 1377 1380 1379 1380 1384 1387 1389 1392 1395 1397 1401
1405 1402 1401 1398 1397 1394 1392 1391 1390 1388 1387 1386 1384 1382 1382 1381 1379 1377 1374 1373 1373 1374 1374 1374 1372 1372 1376 1373 1375 1376 1380 1376 1375 1376 1386 1389 1392 1393 1395 1394 1395 1401 1403
1404 1402 1401 1399 1398 1396 1393 1392 1390 1388 1388 1386 1385 1385 1383 1382 1381 1381 1379 1377 1374 1380 1376 1378 1381 1380 1382 1370 1378 1387 1383 1383 1387 1392 1388 1389 1393 1398 1393 1396 1399 1400 1400
1403 1402 1400 1399 1398 1397 1396 1394 1392 1391 1390 1390 1389 1388 1387 1387 1385 1384 1384 1383 1383 1384 1383 1384 1388 1390 1389 1388 1387 1391 1391 1391 1394 1397 1393 1396 1395 1400 1401 1399 1401 1400 1398
1403 1402 1401 1400 1400 1399 1398 1397 1396 1396 1394 1393 1394 1395 1394 1393 1392 1391 1390 1390 1389 1389 1387 1391 1396 1397 1400 1397 1396 1395 1397 1398 1399 1398 1397 1400 1401 1402 1401 1403 1403 1403 1401
1405 1403 1402 1402 1401 1402 1402 1401 1400 1400 1400 1400 1401 1402 1402 1400 1399 1398 1397 1396 1395 1395 1396 1397 1400 1404 1406 1404 1401 1402 1402 1403 1401 1399 1402 1404 1406 1406 1403 1402 1404 1404 1403
1407 1406 1405 1405 1404 1405 1406 1406 1405 1405 1405 1406 1408 1408 1407 1407 1406 1404 1403 1401 1399 1400 1403 1404 1405 1405 1406 1409 1407 1407 1406 1405 1402 1404 1402 1407 1405 1405 1402 1403 1405 1406 1404
1411 1410 1409 1409 1409 1410 1410 1410 1411 1411 1410 1410 1411 1412 1414 1413 1411 1409 1408 1407 1407 1406 1408 1409 1409 1409 1410 1410 1410 1409 1407 1406 1406 1406 1407 1406 1404 1403 1404 1404 1404 1406 1405
1415 1414 1414 1414 1413 1414 1415 1415 1415 1414 1414 1413 1414 1416 1417 1416 1415 1415 1413 1412 1410 1411 1411 1411 1412 1412 1412 1412 1412 1410 1409 1409 1408 1407 1407 1406 1404 1405 1405 1405 1404 1406 1404
1419 1418 1418 1417 1417 1417 1417 1418 1418 1418 1417 1417 1416 1417 1418 1418 1417 1417 1417 1416 1414 1413 1413 1414 1414 1413 1413 1413 1413 1413 1411 1411 1410 1409 1408 1406 1405 1405 1407 1407 1406 1405 1404
1422 1421 1420 1420 1420 1419 1419 1420 1419 1419 1419 1419 1419 1418 1419 1419 1419 1418 1418 1418 1418 1416 1415 1415 1415 1414 1414 1413 1413 1413 1412 1412 1411 1409 1409 1407 1407 1408 1409 1408 1407 1406 1404
1425 1424 1423 1422 1423 1422 1422 1421 1421 1421 1421 1420 1420 1420 1420 1420 1420 1420 1420 1420 1420 1418 1417 1416 1416 1415 1414 1414 1413 1412 1412 1412 1411 1411 1410 1409 1408 1408 1407 1407 1406 1404 1403
1426 1425 1424 1424 1424 1424 1424 1424 1424 1423 1422 1422 1421 1421 1422 1422 1422 1421 1421 1421 1421 1420 1419 1418 1416 1415 1415 1414 1413 1412 1412 1411 1410 1409 1409 1408 1407 1407 1407 1406 1405 1405 1404
1427 1427 1426 1426 1426 1426 1426 1425 1425 1425 1424 1423 1423 1423 1422 1422 1422 1422 1421 1421 1420 1420 1419 1418 1417 1416 1415 1414 1412 1412 1411 1410 1409 1409 1408 1408 1407 1406 1406 1405 1404 1404 1403